Regional Weather Roundup
Issued by NWS

Home | Current Version | Previous Version | Graphics & Text | Print | Product List | Glossary On
Versions: 1 2 3 4 5 6 7 8 9 10 11 12 13 14 15 16 17 18 19 20 21 22 23 24 25 26 27 28 29 30 31 32 33 34 35 36 37 38 39 40 41 42 43 44 45 46 47 48 49 50
000
ASUS43 KLMK 300202
RWRKY
KENTUCKY REGIONAL WEATHER ROUNDUP
NATIONAL WEATHER SERVICE LOUISVILLE KY
1000 PM EDT FRI MAY 29 2015

NOTE "FAIR" INDICATES FEW OR NO CLOUDS BELOW 12,000 FEET
WITH NO SIGNIFICANT WEATHER AND/OR OBSTRUCTIONS TO VISIBILITY.

KYZ001>023-026-027-061>063-070>075-300300-
WESTERN AND SOUTH CENTRAL KENTUCKY

CITY           SKY/WX    TMP DP  RH WIND       PRES   REMARKS
PADUCAH        MOCLDY    77  67  71 SE5       30.01R
HENDERSON      CLEAR     73  66  78 S3        30.03R
OWENSBORO      CLEAR     76  69  79 SE5       30.05R
HOPKINSVILLE   CLEAR     76  69  78 S7        30.06R
BOWLING GREEN  CLOUDY    74  67  78 SE8       30.09R
GLASGOW        NOT AVBL
$$

KYZ024-025-028>034-038-045-046-053-300300-
NORTH CENTRAL KENTUCKY

CITY           SKY/WX    TMP DP  RH WIND       PRES   REMARKS
LOUISVILLE/SDF PTCLDY    76  66  71 S6        30.07R
LOUISVILLE/LOU MOCLDY    76  65  68 S5        30.08R
FORT KNOX      PTCLDY    73  66  80 S5        30.07R
$$

KYZ035>037-039>044-047>052-055>060-089>105-300300-
NORTHEAST KENTUCKY

CITY           SKY/WX    TMP DP  RH WIND       PRES   REMARKS
LEXINGTON      CLOUDY    74  66  76 S8        30.12R
COVINGTON      MOCLDY    72  67  84 S5        30.08R
FRANKFORT      CLOUDY    76  65  68 S6        30.09R
$$

KYZ054-064>069-076>088-106>120-300300-
SOUTHEAST KENTUCKY

CITY           SKY/WX    TMP DP  RH WIND       PRES   REMARKS
JACKSON        PTCLDY    73  62  68 SE5       30.14S
LONDON         MOCLDY    70  65  84 CALM      30.15R
SOMERSET       NOT AVBL
MIDDLESBORO    MOCLDY    69  65  88 CALM      30.17R
MONTICELLO     PTCLDY    70  70 100 CALM      30.16R
$$




USA.gov is the U.S. government's official web portal to all federal, state and local government web resources and services.